Location: Unspecified
(49.2170°N, 0.0000°E)
Time: 05:15:56
(UTC+00:00)

A-11 Canister half - Pass Details

Date: 22 June 2019
Orbit: 1526 x 1683 km, 47.3° (Epoch: 19 July)

Event Time Altitude Azimuth Distance (km) Brightness Sun altitude
Rises 08:57:07 0° 281° (W) 4,694 11.1 45.7°
Reaches altitude 10° 09:00:11 10° 279° (W) 3,702 10.7 46.2°
Maximum altitude 09:09:23 68° 199° (SSW) 1,626 10.0 47.6°
Drops below altitude 10° 09:18:37 10° 119° (ESE) 3,717 12.0 49.0°
Sets 09:21:42 0° 117° (ESE) 4,714 12.2 49.4°
